Location: Holbach
(51.5399°N, 10.6036°E)
Time: 11:46:40
(UTC+00:00)

Cosmos 1943 - Pass Details

Date: 18 September 2020
Orbit: 833 x 851 km, 71.0° (Epoch: 30 October)

Event Time Altitude Azimuth Distance (km) Brightness Sun altitude
Rises 18:00:39 0° 328° (NNW) 3,400 7.0 -6.4°
Reaches altitude 10° 18:03:06 10° 327° (NNW) 2,464 6.3 -6.8°
Maximum altitude 18:08:45 77° 243° (WSW) 870 3.4 -7.7°
Drops below altitude 10° 18:14:23 10° 159° (SSE) 2,461 5.3 -8.5°
Sets 18:16:50 0° 158° (SSE) 3,394 6.0 -8.9°
